Regional Weather Roundup
Issued by NWS

Home | Current Version | Previous Version | Graphics & Text | Print | Product List | Glossary On
Versions: 1 2 3 4 5 6 7 8 9 10 11 12 13 14 15 16 17 18 19 20 21 22 23 24 25 26 27 28 29 30 31 32 33 34 35 36 37 38 39 40 41 42 43 44 45 46 47 48 49 50
000
ASUS43 KMKX 272000
RWRWI

WISCONSIN REGIONAL WEATHER ROUNDUP
NATIONAL WEATHER SERVICE MILWAUKEE/SULLIVAN WI
300 PM CDT MON JUL 27 2015

NOTE: "FAIR" INDICATES FEW OR NO CLOUDS BELOW 12,000 FEET WITH NO
SIGNIFICANT WEATHER AND/OR OBSTRUCTIONS TO VISIBILITY.

WIZ001-002-006>008-014>016-023>028-272100-
NORTHWEST WISCONSIN

CITY           SKY/WX    TMP DP  RH WIND       PRES   REMARKS
SUPERIOR ARPT  SUNNY     84  71  63 NE6       29.94F HX  89
ASHLAND        SUNNY     89  56  32 SE8       29.97F HX  87
HAYWARD        SUNNY     85  57  38 SE13      30.00F HX  84
SIREN          SUNNY     85  64  48 SE12G18   29.98R HX  86
CUMBERLAND     MOSUNNY   81  66  61 SE10      29.99F HX  83
RICE LAKE      MOSUNNY   82  66  59 SE12G17   30.01F HX  84
CHETEK         PTSUNNY   84  69  61 SE9G17    30.00F HX  87
LADYSMITH      SUNNY     85  57  37 SE9G16    30.04S HX  84
EAU CLAIRE     NOT AVBL
MENOMONIE      MOSUNNY   83  68  61 SE12G17   29.99F HX  86
NEW RICHMOND   MOSUNNY   81  67  62 SE10G17   29.97F HX  84
OSCEOLA        PTSUNNY   82  69  63 SE10      29.98F HX  86
$$

WIZ003>005-009-010-017-018-272100-
NORTH CENTRAL WISCONSIN

CITY           SKY/WX    TMP DP  RH WIND       PRES   REMARKS
MANITOWISH WTR SUNNY     84  56  38 S8        30.05S HX  83
ARBOR VITAE    SUNNY     85  56  37 SW7       30.06S HX  84
WOODRUFF       SUNNY     85  56  37 SW7       30.06S HX  84
RHINELANDER    SUNNY     87  54  32 S8        30.07S HX  85
EAGLE RIVER    SUNNY     87  49  26 S9        30.05F HX  84
LAND O LAKES   SUNNY     89  44  21 S6        30.06S HX  85
PHILLIPS       SUNNY     86  53  32 SE13      30.03F HX  84
TOMAHAWK       SUNNY     85  55  35 S5        30.06S HX  84
MEDFORD        MOSUNNY   81  64  56 SE9G16    30.05S HX  82
MERRILL        NOT AVBL
$$

WIZ029-030-035-036-043>047-272100-
CENTRAL WISCONSIN

CITY           SKY/WX    TMP DP  RH WIND       PRES   REMARKS
WAUSAU         MOSUNNY   87  61  41 SE7       30.03F HX  87
MOSINEE        NOT AVBL
MARSHFIELD     PTSUNNY   83  61  47 S8        30.04S HX  83
STEVENS POINT  PTSUNNY   83  61  48 S8        30.04F HX  83
WAUPACA        PTSUNNY   88  61  40 SE5       30.04S HX  88
WAUTOMA        NOT AVBL
WISC RAPIDS    CLOUDY    85  60  42 SE7       30.04S HX  85
CAMP DOUGLAS   NOT AVBL
$$

WIZ011>013-019>022-031-037>040-048>050-272100-
NORTHEAST WISCONSIN

CITY           SKY/WX    TMP DP  RH WIND       PRES   REMARKS
ANTIGO         SUNNY     83  61  46 S8        30.07F HX  83
SHAWANO        SUNNY     88  60  39 CALM      30.04F HX  87
OCONTO         SUNNY     87  63  45 S7        30.03S HX  88
STURGEON BAY   SUNNY    N/A N/A N/A MISG        N/A
GREEN BAY      SUNNY     86  61  42 S7        30.04R HX  86
MANITOWOC      NOT AVBL
APPLETON       MOSUNNY   84  59  42 S8        30.05S HX  84
CLINTONVILLE   MOSUNNY   86  55  35 S6        30.04S HX  84
OSHKOSH        MOSUNNY   86  63  45 SE9       30.03F HX  87
$$

WIZ032>034-041-042-053>061-272100-
SOUTHWEST WISCONSIN

CITY           SKY/WX    TMP DP  RH WIND       PRES   REMARKS
LA CROSSE      PTSUNNY   86  67  52 SE12      29.97F HX  89
SPARTA         MOSUNNY   87  63  43 S5        30.02S HX  88
VIROQUA        PTSUNNY   82  69  63 SE7       30.03F HX  86
BOSCOBEL       PTSUNNY   89  68  49 VRB6      29.99F HX  93
PRAIRIE DU CHI PTSUNNY   85  66  53 SE3       29.98F HX  87
PLATTEVILLE    PTSUNNY   85  68  56 SE8       30.00F HX  88
$$

WIZ056-057-062-063-064-067-068-272100-
SOUTH CENTRAL WISCONSIN

CITY           SKY/WX    TMP DP  RH WIND       PRES   REMARKS
REEDSBURG      MOSUNNY   87  66  49 SE7       30.02S HX  89
BARABOO/DELLS  MOSUNNY   87  60  39 SE5       30.03S HX  86
LONE ROCK      NOT AVBL
MINERAL POINT  MOSUNNY   88  64  45 S10       30.03S HX  89
MADISON        PTSUNNY   87  67  51 E9        30.01F HX  90
MIDDLETON      MOSUNNY   87  66  50 E8        30.02S HX  89
WATERTOWN      SUNNY     85  66  52 SE8       30.03S HX  87
MONROE         PTSUNNY   86  68  54 SE5       30.02S HX  89
JANESVILLE     MOSUNNY   88  64  45 E10       30.00F HX  89
$$

WIZ051-052-058>065-066-070>072-272100-
SOUTHEAST WISCONSIN

CITY           SKY/WX    TMP DP  RH WIND       PRES   REMARKS
MILWAUKEE      MOSUNNY   85  61  44 E9        30.04S HX  85
WAUKESHA       NOT AVBL
MILWAUKEE/TIMM SUNNY     84  55  37 E6        30.05S HX  83
RACINE         MOSUNNY   83  61  47 E7        30.05F HX  83
BURLINGTON     SUNNY     83  60  44 E8        30.03S HX  83
KENOSHA        MOSUNNY   84  62  47 E9        30.04S HX  85
FOND DU LAC    MOSUNNY   87  63  44 VRB7      30.03F HX  88
SHEBOYGAN      MOSUNNY   84  63  49 S7        30.05S HX  85
WEST BEND      MOSUNNY   82  59  44 SE9       30.05S HX  82
JUNEAU           N/A     83  63  49 SE9       30.05S HX  84
$$

LSZ147-162-272100-
LAKE SUPERIOR

STATION/POSITION TIME  TEMP    WIND        PRES    WAVE
                       AIR SEA DIR/SP/G            HT/PER
                 (UTC) (F)     (DEG/KT/KT) (MB)    (FT/S)
W MID LAKE BUOY  1850   67 63  180/  2/  2 1015.2F   0
DEVILS ISLAND    1900   76      80/  9/ 10 1015.1F
PORT WING        1900   78      40/  9/ 11 1014.6F
SAXON HARBOR     1900   78                 1014.9
$$

LMZ867-665-643>646-272100-
LAKE MICHIGAN

STATION/POSITION TIME  TEMP    WIND        PRES    WAVE
                       AIR SEA DIR/SP/G            HT/PER
                 (UTC) (F)     (DEG/KT/KT) (MB)    (FT/S)
CHAMBERS ISLAND  1900   85     190/  5/ 10 1016.6S
N MID LAKE BUOY  1850   72 71  200/  6/  8 1016.5F   0
NORTHPORT PIER   1900   78     140/  8/ 11 1016.6F
SISTER BAY       1914   86     320/  7/  8   N/A
ALGOMA LAKESHORE 1812             CALM       N/A
KEWAUNEE LAKESHO 1900   74     120/  2/  4 1017.2F
SHEBOYGAN LAKESH 1900   72      80/  3/  3 1017.6F
PORT WASHINGTON  1900   76      70/  2/  3 1018.3R
ATWATER BUOY     1900   73      30/  2/  4 1018.9R
MILWAUKEE LAKESH 1900   72      50/  5/  6   N/A
KENOSHA   LAKESH 1900   76      70/  3/  3 1016.6S
$$

TC  - TEMPERATURE IN CELSIUS
VSB - VISIBILITY IN STATUTE MILES
WCI - WIND CHILL INDEX
HX  - HEAT INDEX



USA.gov is the U.S. government's official web portal to all federal, state and local government web resources and services.